Location: L�Ave Maria
(50.7161°N, 1.5911°E)
Time: 22:30:12
(UTC+00:00)

CZ-4C R/B - Pass Details

Date: 10 July 2020
Orbit: 632 x 1370 km, 63.4° (Epoch: 14 August)

Event Time Altitude Azimuth Distance (km) Brightness Sun altitude
Rises 20:44:51 0° 305° (NW) 3,529 7.6 -5.6°
Reaches altitude 10° 20:47:30 10° 316° (NW) 2,700 6.7 -5.9°
Maximum altitude 20:53:14 32° 19° (NNE) 1,767 4.2 -6.5°
Drops below altitude 10° 20:59:54 10° 80° (E) 3,167 4.9 -7.2°
Sets 21:03:16 0° 90° (E) 4,230 5.4 -7.5°
